Location: Zagreb
(45.8000°N, 16.0000°E)
Time: 08:05:59
(UTC+02:00)

Courier 1B - Pass Details

Date: 15 August 2020
Orbit: 962 x 1209 km, 28.3° (Epoch: 27 September)

Event Time Altitude Azimuth Distance (km) Brightness Sun altitude
Rises 20:14:12 0° 245° (WSW) 4,023 11.4 -2.5°
Reaches altitude 10° 20:18:04 10° 228° (SW) 3,018 10.4 -3.2°
Maximum altitude 20:22:46 18° 188° (S) 2,407 9.4 -3.9°
Drops below altitude 10° 20:27:19 10° 148° (SSE) 2,897 9.5 -4.6°
Enters shadow 20:29:39 - 135° (SE) 3,454 9.8 -5.0°
Sets 20:30:55 0° 130° (SE) 3,802 - -5.2°
